ASSATEAGUE ISLAND MD US current weather conditions

sailwx.info

Wind from 203 at 13 knots gusting 21

Air temperature 11.1° C
Dewpoint 10.8° C

Last reported at 2020-Jan-25 13:40 UTC.
Time now 2020-Jan-25 14:42 UTC

Location: N 38°05' W 075°12'.
View on Google Maps.

See reports from other nearby stations

  
Tides and Currents Weather Stations Pressure Air Temp Water Temp Dewpoint Dewpoint Depression Visibility Wind Speed Wind Dir Waves Ship Positions
date/time (UTC)wind fromknots sea level pressurealtimeterstation pressurevisibilityair tempwater tempwave heightnotes
2020-Jan-25 13:40 203 13 gusting 21 11.1
2020-Jan-25 12:40 127 15 gusting 19 10.0
2020-Jan-25 11:40 137 13 gusting 19 10.0
2020-Jan-25 10:40 125 13 gusting 17 9.4
2020-Jan-25 09:40 115 14 gusting 19 9.4
2020-Jan-25 08:40 097 13 gusting 18 8.9
2020-Jan-25 07:40 100 16 gusting 20 8.9
2020-Jan-25 06:40 100 15 gusting 19 8.9
2020-Jan-25 05:40 093 16 gusting 19 8.9
2020-Jan-25 04:40 090 15 gusting 19 8.9
2020-Jan-25 03:40 094 15 gusting 19 8.9
2020-Jan-25 02:40 089 14 gusting 18 8.3
2020-Jan-25 01:40 090 14 gusting 18 8.3
2020-Jan-25 00:40 091 14 gusting 17 8.3
2020-Jan-24 23:40 090 13 gusting 15 8.3
2020-Jan-24 22:40 091 12 gusting 16 8.3
2020-Jan-24 21:40 083 13 gusting 15 8.9
2020-Jan-24 20:40 075 11 gusting 14 8.3
2020-Jan-24 19:40 057 12 gusting 16 8.9
2020-Jan-24 18:40 052 12 gusting 13 8.3
2020-Jan-24 17:40 041 8 gusting 13 8.3
2020-Jan-24 16:40 033 9 gusting 12 8.9
2020-Jan-24 15:40 030 7 gusting 13 8.9
2020-Jan-24 14:40 038 9 gusting 12 7.8
2020-Jan-24 13:40 032 8 gusting 11 6.7
2020-Jan-24 12:40 035 7 gusting 11 6.7
2020-Jan-24 11:40 042 9 gusting 13 6.1
2020-Jan-24 10:40 024 8 gusting 11 6.7
2020-Jan-24 09:40 030 7 gusting 11 6.7
2020-Jan-24 08:40 021 7 gusting 10 6.1
2020-Jan-24 07:40 027 7 gusting 11 5.6
2020-Jan-24 06:40 020 6 gusting 10 6.1
2020-Jan-24 05:40 026 6 gusting 8 5.6
2020-Jan-24 04:40 032 6 gusting 9 5.6
2020-Jan-24 03:40 033 6 gusting 8 5.6
2020-Jan-24 02:40 026 6 gusting 8 5.0
2020-Jan-24 01:40 015 5 gusting 8 3.9
2020-Jan-24 00:40 346 5 gusting 9 3.9
2020-Jan-23 23:40 348 6 gusting 7 3.9
2020-Jan-23 22:40 018 4 gusting 7 4.4
2020-Jan-23 21:40 348 5 gusting 7 5.0
2020-Jan-23 20:40 016 5 gusting 12 6.1
2020-Jan-23 19:40 027 8 gusting 14 5.6
2020-Jan-23 18:40 027 10 gusting 15 6.1
2020-Jan-23 17:40 026 10 gusting 14 6.7
2020-Jan-23 16:40 028 10 gusting 13 7.2
2020-Jan-23 15:40 037 9 gusting 13 6.1
2020-Jan-23 14:40 037 9 gusting 13 5.6